timestamp,wind_dir_avg,wind_spd_avg,wind_spd_max_dir,wind_spd_gust,battery_voltage,lat,long
2023-11-13 00:04:00+00:00,348.0,5.61,345.0,7.15,12.41,47.59359,-54.27349
2023-11-13 00:14:01+00:00,8.0,6.52,5.0,7.65,12.33,47.59359,-54.27349
2023-11-13 00:24:01+00:00,332.0,6.12,337.0,7.62,12.33,47.59359,-54.27349
2023-11-13 00:34:01+00:00,344.0,8.69,346.0,10.26,12.33,47.59359,-54.27349
2023-11-13 00:44:01+00:00,312.0,6.6,309.0,8.34,12.33,47.59359,-54.27349
2023-11-13 00:54:01+00:00,331.0,7.29,326.0,7.99,12.33,47.59359,-54.27349
2023-11-13 01:04:01+00:00,348.0,6.11,354.0,7.19,12.33,47.59359,-54.27349
2023-11-13 01:14:00+00:00,326.0,6.85,325.0,8.49,12.33,47.59359,-54.27349
2023-11-13 01:24:00+00:00,337.0,5.11,333.0,6.5,12.33,47.59359,-54.27349
2023-11-13 01:34:00+00:00,326.0,5.31,333.0,6.42,12.33,47.59359,-54.27349
2023-11-13 01:44:00+00:00,346.0,4.92,348.0,6.2,12.33,47.59359,-54.27349
2023-11-13 01:54:00+00:00,314.0,5.71,312.0,6.77,12.33,47.59359,-54.27349
2023-11-13 02:04:00+00:00,323.0,6.58,325.0,7.91,12.33,47.59359,-54.27349
2023-11-13 02:14:00+00:00,321.0,4.5,328.0,6.67,12.33,47.59359,-54.27349
2023-11-13 02:24:00+00:00,355.0,7.52,3.0,10.04,12.33,47.59359,-54.27349
2023-11-13 02:34:00+00:00,4.0,6.25,9.0,7.63,12.33,47.59359,-54.27349
2023-11-13 02:44:00+00:00,343.0,4.72,344.0,6.47,12.33,47.59359,-54.27349
2023-11-13 02:54:00+00:00,344.0,6.09,341.0,7.59,12.33,47.59359,-54.27349
2023-11-13 03:04:00+00:00,339.0,7.35,325.0,8.59,12.33,47.59359,-54.27349
2023-11-13 03:14:00+00:00,356.0,7.84,347.0,9.37,12.25,47.59359,-54.27349
2023-11-13 03:24:00+00:00,354.0,9.25,359.0,10.71,12.25,47.59359,-54.27349
2023-11-13 03:34:00+00:00,351.0,7.17,343.0,8.66,12.25,47.59359,-54.27349
2023-11-13 03:44:00+00:00,348.0,7.38,359.0,8.32,12.25,47.59359,-54.27349
2023-11-13 03:54:00+00:00,342.0,5.6,347.0,7.09,12.25,47.59359,-54.27349
2023-11-13 04:04:00+00:00,343.0,7.02,358.0,9.83,12.25,47.59359,-54.27349
2023-11-13 04:14:01+00:00,357.0,6.71,348.0,8.29,12.25,47.59359,-54.27349
2023-11-13 04:24:01+00:00,338.0,6.55,336.0,7.97,12.25,47.59359,-54.27349
2023-11-13 04:34:01+00:00,337.0,7.76,340.0,8.87,12.25,47.59359,-54.27349
2023-11-13 04:44:01+00:00,346.0,6.29,344.0,7.1,12.25,47.59359,-54.27349
2023-11-13 04:54:01+00:00,324.0,7.96,324.0,9.69,12.25,47.59359,-54.27349
2023-11-13 05:04:01+00:00,336.0,6.37,344.0,8.68,12.25,47.59359,-54.27349
2023-11-13 05:14:00+00:00,358.0,6.54,7.0,7.76,12.17,47.59359,-54.27349
2023-11-13 05:24:00+00:00,1.0,7.22,354.0,9.0,12.17,47.59359,-54.27349
2023-11-13 05:34:00+00:00,351.0,6.54,354.0,7.5,12.17,47.59359,-54.27349
2023-11-13 05:44:00+00:00,343.0,8.54,345.0,10.19,12.17,47.59359,-54.27349
2023-11-13 05:54:00+00:00,355.0,6.56,342.0,8.03,12.17,47.59359,-54.27349
2023-11-13 06:04:00+00:00,350.0,6.28,346.0,7.73,12.17,47.59359,-54.27349
2023-11-13 06:14:00+00:00,332.0,5.63,338.0,6.49,12.17,47.59359,-54.27349
2023-11-13 06:24:00+00:00,341.0,5.5,329.0,6.26,12.17,47.59359,-54.27349
2023-11-13 06:34:00+00:00,353.0,4.71,356.0,5.92,12.17,47.59359,-54.27349
2023-11-13 06:44:00+00:00,358.0,5.03,1.0,6.72,12.17,47.59359,-54.27349
2023-11-13 06:54:00+00:00,350.0,4.82,2.0,6.52,12.17,47.59359,-54.27349
2023-11-13 07:04:00+00:00,341.0,4.38,343.0,5.31,12.17,47.59359,-54.27349
2023-11-13 07:14:00+00:00,331.0,4.39,334.0,5.01,12.17,47.59359,-54.27349
2023-11-13 07:24:00+00:00,343.0,3.47,348.0,4.51,12.17,47.59359,-54.27349
2023-11-13 07:34:00+00:00,354.0,4.88,344.0,6.1,12.17,47.59359,-54.27349
2023-11-13 07:44:00+00:00,333.0,4.54,333.0,5.29,12.17,47.59359,-54.27349
2023-11-13 07:54:00+00:00,312.0,5.59,302.0,6.42,12.17,47.59359,-54.27349
2023-11-13 08:04:00+00:00,305.0,3.59,309.0,4.17,12.17,47.59359,-54.27349
2023-11-13 08:14:00+00:00,298.0,4.02,294.0,4.68,12.17,47.59359,-54.27349
2023-11-13 08:24:00+00:00,305.0,4.3,314.0,6.11,12.17,47.59359,-54.27349
2023-11-13 08:34:00+00:00,309.0,4.43,302.0,5.62,12.17,47.59359,-54.27349
2023-11-13 08:44:00+00:00,319.0,4.85,321.0,5.77,12.17,47.59359,-54.27349
2023-11-13 08:54:00+00:00,308.0,4.44,320.0,5.24,12.17,47.59359,-54.27349
2023-11-13 09:04:00+00:00,309.0,5.37,310.0,6.21,12.17,47.59359,-54.27349
2023-11-13 09:14:01+00:00,307.0,5.8,309.0,6.49,12.17,47.59359,-54.27349
2023-11-13 09:24:01+00:00,305.0,5.84,309.0,6.49,12.17,47.59359,-54.27349
2023-11-13 09:34:01+00:00,304.0,6.04,294.0,7.0,12.17,47.59359,-54.27349
2023-11-13 09:44:01+00:00,304.0,6.64,293.0,8.89,12.17,47.59359,-54.27349
2023-11-13 09:54:01+00:00,309.0,6.39,316.0,7.42,12.17,47.59359,-54.27349
2023-11-13 10:04:01+00:00,317.0,6.24,320.0,7.23,12.17,47.59359,-54.27349
2023-11-13 10:14:00+00:00,316.0,5.12,321.0,7.27,12.17,47.59359,-54.27349
2023-11-13 10:24:00+00:00,310.0,6.01,311.0,6.87,12.17,47.59359,-54.27349
2023-11-13 10:34:00+00:00,306.0,5.35,304.0,6.5,12.17,47.59359,-54.27349
2023-11-13 10:44:00+00:00,304.0,5.1,302.0,6.59,12.17,47.59359,-54.27349
2023-11-13 10:54:00+00:00,304.0,4.67,318.0,5.22,12.17,47.59359,-54.27349
2023-11-13 11:04:00+00:00,302.0,4.97,299.0,5.56,12.17,47.59359,-54.27349
2023-11-13 11:14:00+00:00,330.0,5.38,321.0,6.71,12.17,47.59359,-54.27349
2023-11-13 11:24:00+00:00,311.0,5.85,310.0,6.79,12.17,47.59359,-54.27349
2023-11-13 11:34:00+00:00,320.0,4.82,332.0,6.67,12.17,47.59359,-54.27349
2023-11-13 11:44:00+00:00,316.0,5.24,323.0,6.43,12.17,47.59359,-54.27349
2023-11-13 11:54:00+00:00,324.0,5.86,327.0,7.18,12.17,47.59359,-54.27349
2023-11-13 12:04:00+00:00,317.0,6.45,321.0,8.78,12.17,47.59359,-54.27349
2023-11-13 12:14:01+00:00,323.0,7.43,319.0,8.68,12.41,47.59359,-54.27349
2023-11-13 12:24:01+00:00,339.0,6.39,344.0,8.04,12.41,47.59359,-54.27349
2023-11-13 12:34:01+00:00,352.0,6.7,353.0,7.96,12.41,47.59359,-54.27349
2023-11-13 12:44:01+00:00,350.0,7.62,351.0,9.24,12.41,47.59359,-54.27349
2023-11-13 12:54:01+00:00,338.0,7.65,332.0,8.98,12.41,47.59359,-54.27349
2023-11-13 13:04:01+00:00,338.0,7.29,327.0,9.37,12.41,47.59359,-54.27349
2023-11-13 13:14:00+00:00,335.0,5.46,354.0,7.42,13.29,47.59359,-54.27349
2023-11-13 13:24:00+00:00,342.0,7.25,326.0,8.83,13.29,47.59359,-54.27349
2023-11-13 13:34:00+00:00,321.0,6.28,325.0,7.12,13.29,47.59359,-54.27349
2023-11-13 13:44:00+00:00,301.0,6.17,297.0,6.98,13.29,47.59359,-54.27349
2023-11-13 13:54:00+00:00,330.0,4.32,325.0,5.04,13.29,47.59359,-54.27349
2023-11-13 14:04:00+00:00,347.0,6.78,347.0,8.12,13.29,47.59359,-54.27349
2023-11-13 14:14:00+00:00,343.0,5.83,329.0,7.68,13.68,47.59359,-54.27349
2023-11-13 14:24:00+00:00,324.0,5.5,331.0,7.1,13.68,47.59359,-54.27349
2023-11-13 14:34:00+00:00,318.0,5.92,306.0,7.18,13.68,47.59359,-54.27349
2023-11-13 14:44:00+00:00,319.0,5.54,323.0,6.89,13.68,47.59359,-54.27349
2023-11-13 14:54:00+00:00,329.0,7.48,328.0,8.33,13.68,47.59359,-54.27349
2023-11-13 15:04:00+00:00,330.0,5.85,334.0,6.84,13.68,47.59359,-54.27349
2023-11-13 15:14:00+00:00,311.0,6.2,318.0,7.34,14.16,47.59359,-54.27349
2023-11-13 15:24:00+00:00,348.0,4.82,16.0,5.97,14.16,47.59359,-54.27349
2023-11-13 15:34:00+00:00,327.0,7.22,333.0,8.47,14.16,47.59359,-54.27349
2023-11-13 15:44:00+00:00,346.0,6.55,335.0,7.87,14.16,47.59359,-54.27349
2023-11-13 15:54:00+00:00,347.0,6.49,342.0,7.49,14.16,47.59359,-54.27349
2023-11-13 16:04:00+00:00,346.0,4.79,347.0,6.57,14.16,47.59359,-54.27349
2023-11-13 16:14:00+00:00,323.0,5.77,320.0,6.85,13.53,47.59359,-54.27349
2023-11-13 16:24:00+00:00,341.0,5.81,343.0,6.7,13.53,47.59359,-54.27349
2023-11-13 16:34:00+00:00,338.0,5.25,330.0,6.61,13.53,47.59359,-54.27349
2023-11-13 16:44:00+00:00,339.0,5.03,342.0,6.29,13.53,47.59359,-54.27349
2023-11-13 16:54:00+00:00,314.0,3.98,316.0,4.53,13.53,47.59359,-54.27349
2023-11-13 17:04:00+00:00,329.0,5.97,329.0,7.02,13.53,47.59359,-54.27349
2023-11-13 17:14:01+00:00,319.0,3.72,318.0,4.32,13.76,47.59359,-54.27349
2023-11-13 17:24:01+00:00,313.0,5.34,314.0,6.59,13.76,47.59359,-54.27349
2023-11-13 17:34:01+00:00,312.0,5.01,322.0,5.7,13.76,47.59359,-54.27349
2023-11-13 17:44:01+00:00,322.0,3.42,321.0,4.24,13.76,47.59359,-54.27349
2023-11-13 17:54:01+00:00,332.0,5.1,337.0,5.85,13.76,47.59359,-54.27349
2023-11-13 18:04:01+00:00,346.0,3.3,343.0,4.33,13.76,47.59359,-54.27349
2023-11-13 18:14:00+00:00,314.0,3.44,314.0,4.24,14.4,47.59359,-54.27349
2023-11-13 18:24:00+00:00,330.0,2.74,332.0,3.72,14.4,47.59359,-54.27349
2023-11-13 18:34:00+00:00,344.0,4.76,341.0,5.66,14.4,47.59359,-54.27349
2023-11-13 18:44:00+00:00,337.0,4.85,330.0,6.22,14.4,47.59359,-54.27349
2023-11-13 18:54:00+00:00,338.0,4.59,323.0,5.62,14.4,47.59359,-54.27349
2023-11-13 19:04:00+00:00,306.0,3.78,305.0,4.61,14.4,47.59359,-54.27349
2023-11-13 19:14:00+00:00,341.0,4.63,347.0,5.84,13.76,47.59359,-54.27349
2023-11-13 19:24:00+00:00,358.0,3.83,356.0,4.84,13.76,47.59359,-54.27349
2023-11-13 19:34:00+00:00,356.0,4.62,357.0,5.26,13.76,47.59359,-54.27349
2023-11-13 19:44:00+00:00,349.0,3.97,343.0,4.74,13.76,47.59359,-54.27349
2023-11-13 19:54:00+00:00,356.0,4.01,346.0,5.85,13.76,47.59359,-54.27349
2023-11-13 20:04:00+00:00,350.0,4.92,345.0,5.56,13.76,47.59359,-54.27349
2023-11-13 20:14:00+00:00,345.0,4.87,348.0,6.19,12.97,47.59359,-54.27349
2023-11-13 20:24:00+00:00,342.0,4.71,343.0,5.28,12.97,47.59359,-54.27349
2023-11-13 20:34:00+00:00,334.0,3.39,339.0,3.9,12.97,47.59359,-54.27349
2023-11-13 20:44:00+00:00,7.0,4.78,5.0,5.69,12.97,47.59359,-54.27349
2023-11-13 20:54:00+00:00,342.0,4.5,347.0,5.31,12.97,47.59359,-54.27349
2023-11-13 21:04:00+00:00,346.0,4.37,340.0,5.08,12.97,47.59359,-54.27349
2023-11-13 21:14:01+00:00,4.0,4.26,4.0,5.2,12.49,47.59359,-54.27349
2023-11-13 21:24:01+00:00,8.0,4.97,5.0,5.75,12.49,47.59359,-54.27349
2023-11-13 21:34:01+00:00,6.0,4.76,359.0,5.29,12.49,47.59359,-54.27349
2023-11-13 21:44:01+00:00,3.0,4.5,8.0,6.35,12.49,47.59359,-54.27349
2023-11-13 21:54:01+00:00,35.0,5.32,38.0,6.15,12.49,47.59359,-54.27349
2023-11-13 22:04:01+00:00,25.0,5.84,30.0,7.26,12.49,47.59359,-54.27349
2023-11-13 22:14:01+00:00,6.0,5.27,354.0,6.37,12.41,47.59359,-54.27349
2023-11-13 22:24:01+00:00,20.0,4.18,27.0,5.86,12.41,47.59359,-54.27349
2023-11-13 22:34:01+00:00,20.0,5.56,31.0,6.5,12.41,47.59359,-54.27349
2023-11-13 22:44:01+00:00,0.0,5.51,346.0,6.45,12.41,47.59359,-54.27349
2023-11-13 22:54:01+00:00,355.0,4.5,36.0,5.72,12.41,47.59359,-54.27349
2023-11-13 23:04:01+00:00,357.0,3.65,356.0,4.85,12.41,47.59359,-54.27349
2023-11-13 23:14:01+00:00,346.0,4.67,336.0,5.8,12.41,47.59359,-54.27349
2023-11-13 23:24:01+00:00,7.0,3.18,9.0,4.47,12.41,47.59359,-54.27349
2023-11-13 23:34:01+00:00,2.0,3.1,38.0,4.98,12.41,47.59359,-54.27349
2023-11-13 23:44:01+00:00,4.0,3.38,328.0,4.29,12.41,47.59359,-54.27349
2023-11-13 23:54:01+00:00,42.0,4.48,43.0,5.36,12.41,47.59359,-54.27349
